Theta_e
304 304 304 304 304 304 304 304 304 304 304 304 303 303 303 303 303 303 303 302 302 302 302 302 302 302 302 301 301 301 301 300 300 300 300 300 299 299 299 299 298 298 298 298 297 297 297 297 297 297 297 296 296 296 296 296 295 295 295 295 294 294 294 293 293 294 294 294 295 295 295 296 296 296 296 296 296 295 295 295 295 295 294 294 294
304 304 304 304 304 304 304 304 303 304 304 303 303 303 303 303 303 303 303 303 303 302 302 302 302 301 301 302 301 301 301 301 301 300 300 300 300 299 299 299 298 298 298 298 298 297 297 297 297 297 297 296 296 296 296 296 295 295 295 295 294 294 294 293 293 293 293 294 294 294 295 295 295 295 295 295 295 295 295 295 295 295 295 294 294
304 304 303 303 303 303 303 303 303 303 303 303 303 303 303 303 303 303 303 303 303 302 302 302 302 302 301 301 301 301 301 301 301 301 300 300 300 300 299 299 299 298 298 298 298 298 297 297 297 297 297 297 296 296 296 296 295 295 295 295 294 294 294 294 293 293 293 293 294 294 294 295 295 295 295 295 295 295 295 295 295 295 295 294 295
303 303 303 302 302 302 302 302 302 303 303 303 303 303 303 303 303 303 303 303 303 302 302 302 302 302 302 301 301 301 301 301 301 301 300 300 300 300 300 299 299 299 298 298 298 298 298 297 298 298 297 297 297 297 296 296 296 295 295 295 295 294 294 294 293 293 293 293 294 294 294 294 295 295 295 295 295 295 295 295 295 295 295 294 294
303 303 302 302 301 301 301 301 302 302 302 302 303 303 303 303 303 303 303 303 303 303 302 302 302 302 302 301 301 301 301 301 301 301 301 300 300 300 300 300 299 299 299 299 298 298 298 298 298 298 297 297 297 297 297 296 296 296 295 295 295 295 295 294 294 293 293 293 293 294 294 294 294 295 295 295 295 295 295 295 295 294 294 294 294
303 302 301 301 301 301 301 301 301 301 302 302 302 302 302 303 303 303 303 303 302 302 302 302 302 302 302 301 301 301 301 301 301 301 300 300 300 300 300 300 299 299 299 299 299 299 298 298 298 298 298 297 297 297 297 297 296 296 296 296 295 295 295 294 294 294 293 293 293 293 294 294 294 294 294 294 294 294 294 294 294 294 294 294 294
302 301 300 300 300 300 300 301 301 301 301 301 301 301 301 301 301 301 301 301 301 301 301 301 301 301 301 301 301 301 301 301 301 300 300 300 300 300 300 300 299 299 299 299 299 299 299 298 298 298 298 298 298 298 297 297 297 297 296 296 296 295 295 295 295 294 294 293 293 293 293 293 294 294 294 294 294 294 294 294 293 294 294 294 294
300 300 300 300 300 300 300 300 300 300 301 300 300 300 300 300 300 300 300 300 300 300 300 300 300 300 300 300 300 300 300 300 300 300 300 300 300 300 300 300 299 299 299 299 299 299 299 299 298 298 298 298 298 298 298 298 297 297 297 297 296 295 295 295 294 294 294 293 293 293 293 293 293 293 293 294 293 293 293 293 293 293 293 293 293
299 299 300 300 300 300 299 300 300 300 300 300 300 300 299 299 299 299 299 299 299 299 299 299 299 299 299 299 299 299 299 300 300 300 300 300 300 300 300 299 299 299 299 299 299 299 298 298 298 298 298 298 298 298 298 298 298 298 297 297 296 296 295 295 294 294 293 293 293 293 293 293 293 293 292 292 293 293 293 293 293 293 293 293 293
299 299 299 299 299 299 299 299 299 299 299 299 299 299 299 299 299 299 299 299 298 299 298 299 299 299 299 299 299 299 299 299 299 299 299 299 300 299 299 299 299 299 299 299 299 299 298 298 298 298 298 298 298 298 298 298 298 298 298 298 297 296 296 295 295 294 294 293 293 293 293 293 293 293 293 293 293 293 293 293 292 293 293 292 292
299 299 299 299 299 299 299 300 299 299 299 299 299 299 299 299 298 298 298 298 298 298 298 298 298 298 298 298 298 298 298 298 298 298 298 299 299 299 299 299 299 298 298 298 298 298 298 298 298 298 298 298 298 298 298 298 298 298 298 298 298 297 296 296 295 295 294 294 294 294 293 293 294 294 293 293 293 293 293 293 292 292 292 291 292
299 299 299 299 299 299 299 299 299 299 299 299 298 298 298 298 298 298 298 298 298 298 298 298 298 298 298 298 298 298 298 298 298 298 298 298 298 298 298 298 298 298 298 298 298 298 298 298 298 298 298 298 298 298 298 298 298 298 298 298 297 297 297 297 297 296 295 295 295 294 294 294 294 294 294 294 294 293 293 293 292 292 292 291 291
298 298 299 299 299 298 298 298 298 298 298 297 297 297 297 297 297 297 297 297 297 297 297 297 297 297 297 297 297 297 297 297 297 298 298 298 297 298 298 297 297 297 297 297 297 297 297 297 297 297 297 298 298 298 298 298 297 297 297 297 297 297 297 297 297 297 297 296 296 295 295 295 295 295 296 295 294 293 293 293 292 292 292 292 292
298 298 298 298 298 297 297 297 297 297 297 296 296 296 296 296 296 296 296 296 296 297 297 296 296 297 297 297 297 297 297 297 297 297 297 297 297 297 297 297 297 296 296 296 296 296 296 296 296 296 297 297 297 297 298 298 297 297 297 296 296 296 296 296 297 297 297 297 296 296 296 296 296 297 297 296 295 294 294 293 293 293 292 293 293
297 297 297 297 296 296 296 296 296 296 296 296 295 295 295 295 296 295 296 296 296 296 296 296 296 296 296 296 296 296 296 296 296 296 296 297 296 296 296 296 296 296 296 296 296 295 296 296 296 296 296 296 297 297 297 297 297 297 297 296 296 295 295 295 296 296 296 296 296 297 297 297 297 298 298 297 296 296 295 295 294 294 293 293 293
296 296 295 295 295 295 295 295 295 295 295 295 295 295 295 295 295 295 295 295 295 295 295 295 295 295 295 296 295 295 296 296 296 296 296 296 296 296 296 295 295 295 295 295 295 295 295 295 295 295 295 295 296 296 296 297 297 297 297 296 296 296 295 295 295 295 296 296 296 296 297 297 297 297 297 297 296 296 295 295 294 293 293 292 292
294 294 293 293 293 294 294 294 294 294 294 294 294 294 294 294 294 294 294 294 294 294 294 294 294 295 295 295 295 295 295 295 295 295 295 295 295 295 295 295 295 295 295 295 295 295 295 295 295 295 295 295 295 295 296 296 296 297 296 296 296 296 296 296 295 295 295 295 296 296 296 296 296 296 296 296 296 296 294 293 293 293 292 292 292
292 291 291 291 291 292 292 292 292 293 293 293 293 293 293 293 293 293 293 293 293 294 294 294 294 294 294 294 294 294 295 295 295 295 295 295 295 295 295 295 294 294 294 294 294 294 294 294 294 295 295 295 295 295 295 296 296 296 296 296 296 296 296 296 296 295 295 294 295 295 295 295 295 295 295 295 295 295 294 293 293 293 292 292 293
290 289 289 289 289 290 290 291 292 292 292 292 292 292 292 292 292 293 293 293 293 293 293 293 293 294 294 294 294 294 295 295 295 295 295 295 295 295 295 294 294 294 294 294 294 294 294 294 294 294 294 294 295 295 295 295 295 296 296 296 295 296 296 296 296 296 295 294 294 294 294 294 294 294 294 294 294 295 294 294 294 293 292 292 292
286 286 286 287 287 288 289 290 291 291 292 292 291 291 291 291 291 291 291 292 292 293 293 293 293 293 293 294 294 294 294 294 295 295 295 295 295 295 295 295 294 294 294 294 294 294 294 294 294 294 294 294 294 295 295 295 295 295 295 295 295 295 296 296 296 296 296 295 295 294 294 294 293 293 293 293 293 293 294 294 294 293 293 292 292
283 284 284 285 286 287 288 289 290 290 291 290 290 290 290 290 289 290 290 291 291 291 291 292 292 292 292 293 293 293 293 293 294 294 294 294 294 295 295 295 295 294 294 294 294 293 293 294 294 294 294 294 294 294 294 295 295 295 295 295 295 296 296 296 296 296 296 296 295 295 294 294 293 293 292 292 292 292 293 293 293 293 293 293 292
282 282 283 284 285 286 286 287 288 289 289 289 289 289 288 287 287 288 289 289 289 289 290 290 291 291 291 291 292 292 292 292 292 292 293 293 293 293 294 294 295 294 294 294 294 293 293 294 294 294 294 294 294 294 294 294 294 295 295 295 295 295 295 295 295 295 295 295 295 295 295 294 294 293 293 292 292 292 292 292 292 293 293 293 293
281 281 281 283 284 284 284 285 286 287 287 288 288 287 285 284 285 285 286 286 286 287 288 288 289 289 290 290 290 290 289 290 290 291 291 291 291 292 293 293 294 294 294 294 294 293 293 293 293 293 293 293 293 293 293 293 293 294 294 294 294 295 295 295 295 294 294 294 294 294 294 294 294 294 293 293 292 292 292 292 292 292 292 292 293
280 280 280 281 282 282 282 282 284 284 285 287 287 286 283 283 283 283 283 283 284 285 285 286 288 288 288 288 287 286 286 287 288 289 289 289 290 291 291 292 292 293 293 293 293 293 293 293 293 293 293 293 293 293 293 293 293 293 293 293 293 294 294 294 294 294 294 294 294 294 294 294 294 294 294 294 293 293 292 292 292 292 292 292 292
279 279 280 280 281 281 281 281 281 282 283 285 285 284 283 282 282 282 282 282 282 283 284 285 286 286 286 285 284 284 284 285 286 287 287 288 289 290 290 290 290 290 290 291 291 291 291 291 292 292 292 292 292 292 292 292 292 292 292 293 292 293 293 293 293 293 293 293 294 294 294 294 294 294 294 294 294 293 292 292 292 291 291 291 292
279 278 279 279 280 280 280 280 280 280 281 282 283 283 282 282 281 281 281 281 281 281 282 283 284 284 283 283 282 283 283 283 284 285 286 288 288 288 288 288 288 288 289 290 290 290 290 290 290 291 291 291 291 291 291 292 292 292 292 292 292 292 292 292 292 292 293 293 293 293 294 294 294 294 294 294 294 293 292 292 291 291 291 291 291
278 278 278 278 278 278 278 279 279 279 279 280 281 281 281 281 281 280 280 280 280 280 281 281 282 281 282 282 282 282 282 282 284 285 286 286 286 285 285 286 287 288 288 289 289 289 289 289 289 290 290 290 291 291 291 291 291 292 292 292 291 291 291 292 292 292 292 293 293 293 293 294 294 294 294 294 293 293 293 292 291 291 291 290 290
277 277 277 277 277 277 277 277 277 278 278 278 279 280 280 280 280 279 279 279 278 279 279 280 280 280 281 281 281 281 282 282 283 283 283 283 283 283 284 284 285 284 284 284 285 286 287 287 288 289 289 290 290 290 291 291 291 292 292 292 292 292 291 291 291 291 292 292 292 293 293 293 293 293 293 293 293 293 293 292 292 292 291 291 290
276 276 276 275 275 275 276 276 276 276 276 276 277 277 278 279 279 279 278 277 277 277 278 278 279 279 280 280 280 281 281 281 281 281 280 280 281 281 282 281 281 280 281 283 284 285 285 286 286 287 288 289 290 290 291 291 291 292 292 292 292 292 291 291 291 291 292 292 292 292 292 293 293 293 293 293 293 293 293 293 292 292 292 291 291
275 275 274 274 274 274 274 274 274 275 275 275 275 275 275 276 276 277 277 276 276 276 277 277 277 278 279 279 279 279 279 278 278 278 279 279 280 280 280 279 280 280 281 282 282 282 282 283 284 286 288 289 290 290 291 291 291 292 292 292 292 292 292 292 292 291 292 292 292 292 292 292 292 292 293 293 293 293 293 293 292 292 292 291 291
274 273 273 273 273 273 273 273 273 273 274 273 273 273 274 274 274 275 275 275 275 275 275 276 277 277 277 276 276 276 276 276 277 277 277 278 277 277 277 278 279 279 280 280 281 281 282 283 284 286 287 289 289 290 290 291 291 291 291 291 292 292 292 292 292 292 292 292 292 292 292 292 292 292 292 292 292 293 293 293 292 292 292 292 292
272 272 271 271 271 271 272 272 272 272 272 272 272 272 272 273 273 273 273 274 274 274 274 275 275 275 274 274 275 275 275 275 275 276 276 275 275 275 276 277 278 279 279 280 280 281 282 283 285 286 288 289 290 290 290 291 291 291 291 292 292 292 292 292 292 292 292 292 292 292 292 292 292 292 292 292 292 292 292 292 292 292 292 292 292
270 270 270 270 270 270 270 271 271 271 271 271 271 271 271 272 272 272 272 272 272 273 273 273 272 272 272 273 273 273 272 273 274 274 274 274 275 275 276 277 278 279 280 281 281 282 283 284 285 286 287 287 288 288 289 290 291 291 291 291 291 292 292 292 292 292 292 292 292 292 292 292 292 292 292 292 292 292 292 293 293 292 292 292 291
268 268 268 268 268 269 269 269 270 270 270 270 270 270 271 271 271 271 271 272 272 272 271 270 270 270 270 270 270 269 270 272 273 273 273 274 274 275 275 276 276 277 277 278 279 280 281 282 283 283 284 284 284 286 287 288 289 290 290 291 291 291 292 292 292 292 292 292 292 292 292 292 292 292 292 292 292 292 292 292 292 292 292 292 291
266 266 267 267 267 268 268 268 268 268 269 269 269 269 270 270 270 270 270 271 270 270 269 268 268 268 268 267 267 269 270 271 271 271 272 272 272 272 272 272 272 273 273 274 274 275 276 278 279 280 281 282 283 284 285 285 286 287 287 288 288 288 289 290 291 292 292 292 292 292 291 291 292 292 292 292 292 292 292 292 292 292 292 292 292
265 265 265 266 266 266 266 266 267 267 268 268 268 268 268 268 268 268 268 268 268 268 268 267 267 266 266 266 268 268 268 268 267 268 269 269 269 270 270 271 271 271 271 272 272 273 274 275 276 277 278 278 278 278 279 279 280 281 281 281 281 282 284 285 287 288 288 290 291 292 292 291 291 291 291 292 292 292 292 292 292 292 292 292 292
264 264 264 264 264 264 265 265 266 266 266 266 266 266 266 265 265 265 265 266 266 266 266 266 265 265 265 266 266 265 264 264 265 266 266 267 268 269 269 268 268 269 269 270 270 271 272 272 273 273 273 273 272 273 273 274 275 275 276 277 278 279 280 280 281 281 282 284 286 288 290 292 292 291 291 291 291 292 292 292 292 292 292 292 291
263 263 263 263 263 264 264 264 264 264 264 264 264 264 263 263 263 264 264 264 264 264 264 264 264 265 265 264 263 263 263 263 264 264 265 266 266 266 265 265 266 267 267 268 268 268 268 268 268 268 268 268 268 268 270 271 272 273 274 275 276 277 278 278 278 278 279 280 281 282 285 287 289 291 292 292 291 291 291 292 292 292 291 291 291
262 261 262 262 262 262 262 262 262 262 262 262 262 262 262 262 262 262 262 262 262 263 263 263 263 263 262 261 261 261 262 262 262 263 263 263 263 263 263 264 265 265 264 264 264 264 264 264 264 264 264 264 265 267 269 270 270 271 272 273 274 275 276 276 276 276 277 278 279 279 280 281 283 286 288 290 291 292 291 291 291 292 291 291 290
260 260 261 261 260 260 260 260 260 260 260 260 260 260 260 260 260 260 261 261 261 261 261 261 260 260 260 260 260 260 260 260 260 261 261 261 261 261 262 262 262 261 261 261 261 261 261 261 261 261 261 263 264 265 265 265 265 267 268 270 271 272 273 274 274 275 275 276 276 277 278 278 280 281 283 285 288 291 292 291 291 291 291 291 290
259 259 259 258 258 258 258 258 258 259 259 259 258 259 259 259 259 259 260 260 259 259 259 259 259 259 259 259 259 259 259 259 259 259 259 259 259 259 259 259 259 259 259 259 259 259 259 259 259 260 261 261 261 261 261 262 263 265 267 268 269 271 272 272 272 273 273 274 274 275 276 277 278 279 279 281 283 286 289 291 291 290 290 290 288
257 257 257 256 257 257 257 257 257 257 257 257 257 257 258 258 258 258 258 258 258 258 257 258 258 258 257 258 257 257 257 257 257 257 257 257 257 257 257 257 257 257 257 257 257 257 258 258 258 258 259 259 259 259 260 261 262 263 263 264 266 268 269 270 270 270 271 271 272 273 274 275 276 277 278 279 281 282 285 288 289 290 289 286 282
256 255 255 255 256 256 256 256 256 256 256 256 256 256 256 256 256 256 256 256 256 257 257 257 257 257 256 256 256 256 256 256 256 256 256 256 256 256 256 256 256 256 256 256 256 256 256 256 257 257 257 257 257 258 259 259 260 261 261 263 264 266 267 267 267 267 268 268 269 270 272 273 274 276 278 279 280 281 282 283 284 285 283 280 276
255 254 254 255 255 255 255 255 255 255 255 255 255 255 255 256 255 256 256 256 256 256 256 256 256 256 256 255 255 255 255 255 255 255 255 255 255 255 255 255 255 255 255 255 255 255 255 255 256 256 256 256 257 257 258 258 259 260 261 262 262 263 263 263 264 264 264 265 266 267 269 271 272 274 277 279 279 280 280 280 280 279 276 274 272
254 254 254 254 254 254 254 254 254 255 255 255 255 255 255 255 255 255 255 255 255 255 255 255 255 255 255 255 255 255 255 255 255 254 254 255 254 254 254 254 254 254 254 254 254 254 254 255 255 255 255 256 256 256 257 258 258 258 259 259 259 260 260 261 261 261 262 263 263 265 268 270 272 273 275 276 277 278 279 279 278 275 273 271 271
253 253 253 253 254 254 254 254 254 254 254 254 254 254 254 254 254 254 254 254 255 254 254 254 254 254 254 254 254 254 254 254 254 254 254 254 254 254 254 253 253 253 253 254 254 254 254 254 255 255 255 256 256 256 257 257 257 258 258 258 258 258 259 259 260 260 261 262 263 265 267 268 270 271 272 273 275 276 277 276 275 273 271 270 269
253 253 253 253 253 253 253 254 254 254 254 254 254 254 254 254 254 254 254 254 254 254 254 254 254 254 254 253 253 254 253 253 253 253 253 253 253 253 253 253 253 253 253 253 254 254 254 255 255 255 256 256 256 256 257 257 257 257 257 257 257 258 258 258 259 259 260 261 262 263 264 266 267 269 271 272 273 274 273 272 271 270 269 268 267
253 253 253 253 253 253 253 253 253 253 253 253 253 253 253 253 253 253 253 253 253 253 253 253 253 253 253 253 253 253 253 253 253 253 253 253 253 253 253 253 253 253 253 253 254 254 255 255 256 256 256 256 256 256 256 256 256 256 257 257 257 257 257 258 258 259 260 260 261 262 263 265 267 269 270 271 271 271 269 268 267 266 266 265 265
252 253 253 253 253 253 253 253 253 253 253 253 253 253 253 253 253 253 253 253 253 253 253 253 253 253 253 253 253 253 253 253 253 253 253 252 252 252 252 252 253 253 253 254 254 255 255 256 256 256 256 256 256 255 255 255 255 256 256 256 256 256 257 258 258 259 260 261 262 263 264 266 267 269 269 269 269 268 266 265 265 264 264 264 263
252 252 252 253 253 253 253 253 253 253 253 253 252 252 253 253 253 253 252 252 253 253 252 252 252 252 252 252 252 252 252 252 252 252 252 252 252 252 252 252 252 253 253 254 254 255 255 256 256 256 255 255 255 255 255 255 255 256 256 256 256 256 256 257 258 259 260 261 262 263 264 265 266 266 266 266 265 265 264 263 263 263 262 262 262
252 252 252 252 252 252 252 253 252 252 252 252 252 252 252 252 252 252 252 252 252 252 252 252 252 252 252 252 252 252 252 252 252 252 252 252 252 252 252 252 252 252 253 253 254 254 255 255 255 255 255 255 255 255 255 255 255 255 255 255 255 255 256 256 257 258 259 260 261 262 262 263 263 263 263 263 263 262 262 261 261 261 261 261 261
Wind_Speed
20 20 20 20 21 21 22 22 22 22 22 22 23 25 25 25 26 26 26 26 26 27 27 27 27 27 27 28 29 29 30 31 31 31 31 32 33 33 33 32 33 34 34 34 34 33 34 34 35 35 34 33 33 33 33 33 33 33 33 32 32 31 30 24 15 15 23 27 27 29 29 26 26 26 26 27 27 27 28 29 29 29 29 30 30
20 20 20 20 20 21 22 22 22 23 23 24 25 26 26 27 26 26 26 27 26 27 27 27 27 28 28 29 29 30 31 31 31 31 32 33 34 34 34 33 34 35 34 34 35 34 34 35 36 36 34 34 35 35 34 34 33 34 34 33 34 33 32 30 23 15 19 26 26 27 30 30 31 32 30 30 31 30 31 32 32 32 32 32 33
19 19 20 20 20 21 21 21 21 22 24 25 26 27 28 28 27 27 28 28 27 27 27 27 27 28 29 30 30 31 31 32 32 32 33 34 34 34 34 34 34 35 35 36 36 35 34 35 37 37 35 34 36 36 36 35 34 35 35 35 35 35 34 33 29 21 19 25 26 25 27 30 33 34 34 34 34 33 34 35 35 34 34 34 35
20 20 21 22 22 22 22 22 21 22 23 24 26 26 27 28 27 27 28 28 28 28 28 28 27 28 29 30 31 32 32 32 33 33 34 34 35 36 35 35 35 36 36 37 36 35 35 36 38 37 35 35 36 36 36 36 36 35 36 36 36 36 36 35 34 31 25 24 25 26 27 29 32 34 33 33 34 35 36 36 35 36 36 36 37
20 21 22 23 24 24 24 23 22 23 23 23 24 25 25 26 26 26 26 27 28 28 28 27 28 28 29 31 31 32 32 33 33 34 35 35 35 36 36 36 36 36 37 37 37 37 36 38 39 37 35 35 36 37 36 37 37 36 37 37 36 36 36 35 36 35 30 26 27 29 28 28 30 31 32 32 33 34 36 36 36 36 37 38 38
20 22 23 24 25 25 25 24 24 24 24 23 23 24 24 24 24 24 24 25 26 27 27 27 28 28 30 30 31 32 32 33 34 35 35 36 36 37 37 37 37 37 37 38 38 38 38 39 40 38 36 37 38 38 38 37 37 37 38 38 37 35 35 35 35 34 32 31 31 30 29 28 28 30 31 32 32 33 34 34 35 38 38 37 38
21 24 25 24 25 25 24 24 24 24 23 23 23 23 23 23 23 23 23 23 24 25 26 27 28 28 29 30 31 32 32 33 34 35 36 36 36 36 37 37 37 37 38 39 38 38 39 40 40 39 39 39 40 40 39 38 38 38 40 40 37 35 34 35 34 33 31 31 30 30 30 29 29 30 30 30 31 33 33 29 30 35 37 37 38
23 25 25 25 25 25 25 24 23 23 23 23 23 23 23 23 23 23 22 22 23 24 25 27 27 28 29 29 30 31 31 33 35 35 36 35 35 36 36 36 37 38 38 39 39 39 40 40 40 41 41 42 42 42 41 40 38 39 41 39 37 35 35 34 33 32 30 29 28 29 29 27 28 29 27 25 26 30 34 31 29 33 35 35 38
25 25 25 25 25 25 25 25 24 24 24 23 24 24 24 24 24 24 23 23 24 25 25 26 27 28 28 29 29 30 31 33 35 35 35 34 34 34 35 35 36 37 37 38 39 40 41 41 41 42 43 43 44 45 45 44 41 41 41 39 37 36 35 33 32 30 28 26 26 26 24 23 26 26 23 26 29 31 32 31 31 35 34 32 36
25 25 26 26 26 26 26 25 26 26 26 25 25 26 26 26 26 26 26 26 26 26 26 26 27 28 28 29 29 30 31 33 35 35 34 34 34 34 34 34 35 35 37 37 38 40 41 41 42 43 43 44 45 46 47 47 47 47 45 42 39 37 35 33 32 31 28 24 24 24 18 18 26 28 27 31 34 32 29 28 30 32 29 25 28
25 26 26 27 27 27 27 27 27 28 28 28 28 28 29 29 29 29 29 29 29 28 28 28 28 29 29 29 30 30 32 34 34 34 34 33 34 35 34 35 35 35 36 36 37 39 40 41 42 41 41 43 44 46 48 49 51 52 51 48 45 41 39 36 34 33 30 26 26 26 20 20 28 31 31 33 33 31 31 31 29 27 22 15 15
25 26 26 27 27 28 28 28 29 29 30 30 30 30 30 30 31 30 30 30 31 30 30 30 30 30 29 30 30 31 33 35 35 35 34 33 33 34 35 35 35 36 36 37 38 39 39 41 40 39 40 41 42 44 45 48 50 52 53 53 51 49 47 44 40 36 34 30 28 28 27 27 29 31 32 34 33 32 32 32 30 28 24 18 15
25 25 25 26 27 28 28 29 30 30 31 31 32 32 32 31 31 30 30 31 30 30 30 30 30 30 30 30 30 32 34 35 35 35 35 34 33 34 35 35 35 36 37 37 39 39 39 39 38 39 39 39 41 41 42 44 46 47 50 52 52 53 53 53 51 46 42 38 32 33 36 34 32 35 37 37 34 31 29 30 31 30 27 25 27
23 24 26 27 27 28 29 29 29 30 30 31 32 32 32 32 31 31 31 31 31 31 31 31 31 31 30 30 30 31 33 34 35 35 34 34 33 34 35 36 36 37 37 38 39 39 39 38 38 40 40 39 40 39 40 42 41 42 44 46 49 52 53 55 55 53 51 47 41 42 43 40 40 43 42 39 37 34 32 32 33 33 33 34 37
24 26 28 28 29 30 30 30 30 30 31 31 31 31 31 31 32 32 31 31 31 31 32 32 33 32 32 31 31 32 33 34 35 35 34 34 33 33 34 35 36 36 37 38 38 39 38 37 39 41 41 40 40 39 39 40 38 39 41 41 44 47 49 53 55 55 56 54 52 52 51 48 47 48 44 40 41 41 39 38 36 35 35 34 34
28 29 30 31 32 32 32 31 31 31 32 32 32 32 32 32 32 32 31 31 31 31 30 31 31 32 32 32 32 33 34 34 35 35 35 35 35 34 34 34 34 35 36 36 36 37 37 36 38 40 41 42 41 40 40 39 38 40 40 40 41 42 46 51 52 54 57 57 57 59 58 55 52 50 47 44 43 42 38 35 34 30 26 21 22
29 30 31 31 32 33 33 33 32 32 32 32 32 33 33 34 34 33 33 32 32 32 32 31 31 31 32 32 32 33 34 34 34 35 34 34 34 35 34 34 33 33 35 36 35 35 35 35 37 39 41 42 40 39 39 37 39 41 39 39 39 41 45 46 44 49 55 57 59 62 63 60 55 52 50 46 43 40 33 29 28 27 21 14 12
28 30 30 30 31 32 32 32 32 32 32 32 32 33 34 35 35 35 35 34 34 34 34 34 33 33 32 32 32 33 34 34 33 33 33 32 33 34 34 33 33 33 35 35 34 34 34 34 35 37 40 42 40 38 37 36 38 40 38 37 37 39 44 40 36 41 47 49 56 61 63 62 59 56 54 51 46 42 36 34 32 28 21 15 12
27 28 29 30 31 31 31 31 31 31 31 31 31 32 33 33 34 35 35 34 35 35 35 35 35 34 34 35 34 33 35 35 34 33 33 33 33 34 34 32 32 32 34 34 34 33 32 32 33 34 37 40 39 38 38 37 39 40 39 35 34 39 44 38 33 38 39 39 46 52 55 59 59 58 58 56 52 48 46 44 38 31 26 22 19
27 28 29 30 30 30 30 30 30 30 30 30 30 31 31 31 32 33 34 34 34 34 34 34 34 34 34 34 34 34 34 36 35 34 34 34 33 34 35 33 32 33 35 34 33 33 32 32 32 32 33 36 37 36 36 36 38 40 41 37 35 41 43 37 34 38 37 37 41 43 46 51 53 53 54 54 52 51 51 49 44 40 35 30 25
28 29 30 29 29 30 30 30 30 29 28 30 31 30 29 31 32 32 32 32 32 33 33 33 33 33 32 32 33 33 33 35 36 35 34 34 33 33 34 35 34 35 37 36 34 33 34 34 34 33 33 35 36 35 35 35 36 39 41 41 41 45 44 39 39 40 38 39 40 39 41 44 44 45 47 49 50 51 52 52 52 50 44 38 31
28 29 29 29 29 30 30 31 30 29 30 32 31 29 30 32 33 33 32 32 32 32 33 33 32 32 32 31 31 32 33 34 36 36 35 36 36 36 36 36 36 36 37 38 36 34 35 36 37 37 36 37 38 38 37 37 37 39 42 44 46 47 45 43 43 41 38 37 37 36 38 39 39 40 41 44 46 48 49 52 55 54 52 51 46
29 29 29 29 29 30 31 32 31 30 32 33 30 29 32 34 34 33 33 34 34 34 33 33 33 33 33 31 31 33 35 36 36 36 37 38 39 39 38 37 38 37 36 37 39 38 38 39 40 41 41 41 42 42 42 41 40 40 42 44 46 46 44 43 42 39 37 36 34 34 37 38 37 37 38 41 43 44 46 49 52 52 53 55 57
30 30 30 30 29 30 32 32 32 32 34 33 30 30 33 34 33 33 33 34 34 33 32 32 31 30 30 31 32 35 36 37 37 37 38 39 39 39 38 37 38 38 38 39 41 42 43 44 46 49 49 48 47 46 45 44 43 43 44 45 47 46 42 40 39 37 34 33 32 33 36 39 38 37 38 40 39 40 44 45 47 49 52 55 56
31 32 32 31 30 32 33 32 33 34 34 33 31 31 32 32 31 31 33 33 32 32 32 32 30 29 29 31 33 36 37 38 38 37 37 38 38 37 37 37 39 41 42 43 44 46 48 51 53 54 53 50 47 44 43 43 43 43 44 45 45 44 41 39 38 35 31 31 32 33 36 40 40 39 40 39 37 37 40 41 43 45 47 49 49
32 33 33 32 32 32 33 33 33 34 34 33 33 32 32 32 31 32 32 31 31 32 33 32 31 30 30 31 35 37 37 37 37 36 35 34 34 36 38 42 45 45 44 44 45 47 49 52 54 54 54 52 49 44 43 44 45 45 45 44 42 40 39 38 36 33 31 32 34 35 38 41 41 39 38 37 35 37 37 36 37 39 41 40 39
31 32 32 32 32 32 32 33 33 34 34 33 33 33 33 31 32 33 32 31 32 33 32 32 31 30 30 32 36 38 39 38 36 33 33 34 36 40 42 42 41 40 39 40 42 45 48 52 55 57 56 55 52 48 45 44 43 42 41 40 39 38 39 39 38 36 35 35 36 37 40 41 38 36 36 35 35 38 38 35 33 35 37 36 31
30 31 31 31 31 31 31 32 33 33 34 33 32 32 32 32 32 32 31 31 33 35 35 34 31 30 31 35 37 37 36 35 32 33 38 42 44 44 42 39 39 40 42 43 44 45 47 50 52 52 51 48 46 44 42 40 38 37 36 36 36 36 37 39 39 39 38 38 37 37 37 36 35 35 36 34 34 37 37 35 34 34 34 30 24
29 30 31 31 31 31 31 32 33 34 33 33 33 34 34 34 34 35 35 35 34 35 38 39 39 37 37 38 36 33 32 36 41 46 49 49 48 47 45 46 48 49 48 46 45 44 43 43 43 43 42 40 38 37 37 37 36 35 35 35 34 33 33 33 33 35 37 37 35 34 34 33 33 34 33 31 33 37 36 34 34 34 32 27 22
29 29 30 31 32 32 32 33 34 34 32 33 36 38 39 37 35 34 37 40 39 37 37 41 44 43 42 41 39 37 40 47 54 57 55 51 49 49 50 52 54 53 51 49 46 41 37 35 35 35 34 33 31 31 31 32 32 32 33 34 33 31 31 31 32 33 35 34 33 33 33 32 31 31 30 29 31 34 34 34 35 33 29 25 19
29 30 31 31 32 33 33 34 34 33 32 33 35 37 40 42 41 37 36 38 40 42 43 42 39 37 40 45 47 47 49 51 53 54 55 56 56 56 55 54 54 52 52 50 45 38 33 30 29 31 32 31 29 30 31 31 30 30 31 32 32 32 31 31 32 33 33 32 32 33 32 31 30 30 30 29 30 30 30 32 32 31 30 27 19
31 31 32 32 33 34 33 34 34 33 33 34 35 35 36 39 41 44 42 38 37 39 40 39 37 39 43 45 45 46 50 53 54 55 55 57 58 59 58 56 55 53 52 49 40 34 31 30 27 27 27 27 27 29 30 31 31 30 29 28 28 30 30 31 34 34 32 32 32 32 31 31 31 30 30 30 29 27 27 27 28 28 29 27 23
31 32 32 33 35 35 33 32 33 33 34 34 34 35 34 31 33 40 46 45 42 38 32 30 35 42 43 40 40 44 49 52 52 53 55 56 56 56 56 55 53 50 47 40 31 27 27 27 25 24 25 27 29 31 33 34 33 31 30 29 29 31 32 34 35 34 33 33 33 32 31 32 31 30 30 30 28 26 25 25 26 25 23 19 19
33 33 32 33 34 34 33 33 33 33 34 34 34 34 33 33 33 34 37 39 40 39 36 35 34 33 34 39 45 49 48 45 43 45 49 52 52 53 53 51 46 43 41 37 32 29 28 27 27 29 31 33 35 35 35 36 36 36 35 35 34 34 34 35 34 33 32 32 32 32 32 32 31 29 27 27 27 25 23 23 23 20 16 13 13
35 33 32 31 31 32 34 35 34 33 32 33 33 32 32 33 32 30 30 31 33 36 41 43 40 35 38 44 45 43 40 41 43 47 49 49 51 54 53 47 40 37 38 37 35 35 33 31 32 34 34 34 35 35 34 36 37 37 36 35 35 34 35 35 35 33 32 31 31 31 32 32 32 31 29 27 24 20 19 21 22 19 16 14 13
33 31 30 30 31 33 35 34 33 32 31 31 31 32 32 32 31 31 32 34 34 34 36 41 45 48 48 43 37 35 39 44 47 48 48 48 50 47 41 34 31 33 36 37 39 39 37 34 33 33 34 34 36 38 38 38 38 37 37 37 36 34 34 34 34 33 33 33 32 32 32 31 31 31 30 27 26 24 23 23 24 23 21 19 16
31 30 30 31 33 34 34 32 30 30 30 30 30 31 32 33 33 33 32 32 33 33 35 40 46 48 44 39 38 43 46 46 45 42 41 41 40 36 32 32 33 34 36 38 39 38 36 34 33 34 34 35 37 40 41 41 41 41 40 39 37 33 31 32 34 35 35 33 32 33 33 31 31 31 29 24 23 25 27 26 24 23 24 25 21
31 30 31 31 32 31 30 30 30 30 30 30 30 31 32 32 32 31 30 31 33 33 35 37 38 36 37 41 46 49 48 45 42 38 35 33 33 35 39 41 39 34 32 33 35 35 36 37 39 39 38 39 42 44 44 43 42 40 39 39 39 37 34 34 35 34 31 29 29 32 33 31 29 30 29 25 22 23 25 26 24 19 18 21 18
32 32 30 29 28 28 29 31 31 30 31 31 30 31 31 31 31 31 31 32 32 32 32 32 33 34 39 44 46 45 44 42 40 37 35 35 35 36 38 38 35 34 35 37 38 40 41 42 45 46 46 47 47 43 39 38 39 40 41 40 39 37 36 35 35 32 31 30 29 29 30 31 32 32 30 27 26 25 24 25 24 20 15 13 13
32 31 29 28 28 29 30 30 29 29 29 30 30 31 30 31 31 31 31 31 31 31 31 33 34 37 41 42 43 43 42 40 39 39 38 38 38 37 36 34 36 40 42 41 42 44 45 47 49 50 48 48 46 44 43 44 44 44 43 42 39 38 39 38 36 32 31 33 33 32 32 31 31 31 31 32 32 29 27 25 25 24 20 17 16
30 29 29 29 30 30 29 28 27 27 28 29 29 29 29 29 30 31 31 31 31 31 33 33 34 36 38 40 42 44 41 39 38 39 38 39 39 38 37 37 37 40 41 42 43 46 46 46 47 46 45 45 47 49 52 51 46 42 40 39 37 36 36 35 35 34 33 34 34 34 34 34 33 31 30 32 36 34 30 27 26 25 23 21 18
30 31 31 30 30 29 28 27 27 28 28 28 27 27 28 28 29 29 30 31 31 31 31 32 33 35 37 39 41 42 40 37 37 37 38 40 40 40 40 40 39 40 41 43 44 45 44 44 44 46 47 49 49 49 49 48 45 44 44 43 40 38 36 35 35 35 33 33 35 36 36 35 36 34 33 33 33 32 30 28 24 22 20 17 16
31 32 31 30 29 28 27 28 28 28 27 27 27 28 28 28 28 29 29 29 29 30 30 31 32 34 36 38 39 39 37 35 35 36 38 39 39 41 43 43 42 42 43 43 42 43 43 44 45 46 48 49 49 47 47 47 47 47 47 44 41 39 37 36 37 37 34 32 35 37 36 36 36 34 33 33 31 28 26 27 23 17 11 10 14
31 30 28 28 28 27 27 27 27 27 27 28 28 28 28 27 28 29 29 28 29 29 29 30 32 34 36 38 38 37 35 34 35 36 37 38 39 41 43 44 44 45 45 44 43 42 42 42 44 45 46 47 47 46 46 46 46 45 46 45 43 42 41 41 43 45 43 40 40 40 38 37 36 33 30 31 30 26 24 22 18 10 4 6 9
29 29 27 27 27 27 27 27 27 27 28 28 28 28 27 27 28 28 28 28 29 29 29 30 32 32 34 37 37 36 35 35 35 36 37 38 39 40 42 44 45 46 46 45 45 44 43 42 42 43 43 43 44 44 44 44 44 45 46 46 45 46 47 49 50 51 49 46 44 41 37 34 32 30 30 31 31 27 23 20 15 10 8 8 7
28 27 27 26 26 26 27 27 27 27 28 27 27 28 28 28 28 28 28 28 29 30 30 32 32 32 33 35 35 36 36 37 36 36 37 38 39 40 42 44 45 45 46 46 46 46 45 44 42 41 42 43 43 43 43 44 44 44 45 44 44 45 47 48 48 48 47 44 41 38 36 34 33 34 36 36 34 29 22 17 14 12 11 10 10
28 27 26 25 25 26 27 27 27 27 27 27 27 27 28 29 29 28 28 29 30 30 30 31 32 32 33 34 35 36 37 37 37 37 38 38 39 41 42 44 45 46 47 47 47 47 46 44 42 41 41 41 41 41 41 41 42 42 43 43 43 43 45 46 46 45 45 44 42 41 39 36 34 35 36 34 30 24 16 12 12 12 12 12 14
27 26 26 26 25 26 27 27 27 27 27 27 27 27 28 29 29 29 29 30 30 30 30 31 32 33 33 34 35 36 36 37 38 38 38 39 40 41 42 43 44 46 47 48 48 46 45 42 41 39 38 38 38 38 38 37 38 39 40 41 42 42 42 43 44 44 44 44 43 42 40 37 35 34 33 29 23 18 14 13 13 14 15 16 17
27 26 27 27 27 26 26 27 27 27 28 27 27 27 28 28 28 29 30 30 29 29 30 30 32 33 33 34 36 37 37 37 37 38 39 40 41 42 42 43 43 45 46 46 46 45 43 41 39 38 38 37 37 37 37 36 36 37 39 40 41 41 40 37 35 35 35 36 37 37 37 36 34 30 25 20 18 16 16 16 17 18 18 17 18
27 26 27 27 27 27 27 27 27 28 28 28 27 27 27 27 28 30 30 30 30 30 30 31 32 33 33 34 35 36 36 37 37 38 39 40 41 41 42 42 43 43 44 43 43 42 42 40 39 39 39 38 38 38 38 37 37 37 39 40 41 40 38 34 31 28 26 25 25 25 25 24 20 16 13 14 16 17 18 19 20 20 19 19 19
27 27 27 27 27 27 27 27 27 28 28 28 28 27 27 28 29 30 30 31 31 31 31 32 32 33 33 34 34 34 35 36 37 37 38 38 39 40 40 41 41 41 41 41 41 41 41 40 39 39 40 39 39 39 40 39 39 39 39 40 41 41 38 34 31 27 22 17 13 9 6 4 4 7 9 12 15 18 20 21 21 21 20 20 20
Wind_Direction
324 319 315 312 306 302 300 297 294 291 288 285 283 283 285 284 285 286 285 284 283 281 279 279 278 277 276 274 274 273 271 269 267 264 261 259 259 259 259 258 255 255 255 254 252 250 250 250 251 251 250 249 248 248 247 246 245 244 242 241 239 236 233 229 236 261 262 255 253 256 257 256 257 254 250 251 252 251 254 257 260 261 262 263 264
334 328 323 318 312 309 306 301 298 293 288 285 283 284 286 287 288 287 285 286 286 283 282 281 279 276 275 274 274 273 272 270 268 264 261 260 259 259 258 256 255 255 254 253 252 250 249 248 250 251 249 247 246 246 245 244 242 241 240 238 238 237 232 231 234 248 263 260 252 251 254 253 253 253 251 250 252 253 254 256 257 258 260 261 262
340 336 331 326 322 318 312 308 303 297 291 288 286 286 288 289 290 287 287 289 288 285 284 283 280 277 274 274 273 272 271 270 268 265 262 260 259 259 258 256 254 254 253 253 254 252 250 249 250 250 248 247 246 245 245 244 241 240 240 238 237 238 235 232 234 239 254 262 256 248 247 247 248 251 252 252 254 255 254 256 257 258 259 260 261
343 340 336 332 330 326 322 319 314 306 300 296 294 294 294 293 292 290 290 290 289 288 287 285 282 278 275 274 273 272 271 270 269 266 263 261 260 259 259 257 256 255 254 255 254 252 250 250 252 251 248 246 246 246 244 243 241 239 240 239 237 238 238 234 234 237 246 259 260 252 247 246 247 250 251 251 253 253 254 255 255 256 257 259 260
344 343 339 335 332 330 328 326 322 318 314 310 307 306 305 302 299 296 294 292 292 291 289 286 283 279 276 276 274 273 273 272 270 268 265 263 261 260 259 258 257 256 256 256 256 253 252 252 253 252 249 246 246 246 244 242 242 239 239 240 238 237 239 237 236 238 241 250 258 258 253 248 248 249 248 247 248 250 252 252 252 254 256 257 258
345 342 338 334 331 330 331 330 328 325 323 320 317 314 313 309 305 301 298 295 294 292 289 287 285 281 280 279 277 275 275 273 271 269 268 265 262 261 260 259 258 258 258 258 257 255 253 253 254 253 249 247 247 247 246 243 241 240 239 239 238 237 237 237 237 238 239 244 251 256 255 249 248 248 246 243 243 245 248 249 250 251 251 252 254
339 337 335 333 331 332 333 332 330 328 326 324 321 318 316 314 310 307 303 299 296 293 291 289 287 285 283 281 279 277 276 275 273 270 268 265 262 260 260 259 259 259 259 259 258 257 256 254 254 253 250 248 248 248 247 245 242 241 241 240 238 236 235 236 237 237 238 242 246 250 253 251 248 248 247 244 243 244 245 245 247 248 247 246 248
336 335 335 334 334 335 335 333 330 328 327 325 323 321 320 318 316 313 309 304 300 297 294 292 290 288 285 282 280 279 277 275 273 271 268 266 263 261 260 259 259 260 260 260 260 259 258 257 255 254 252 250 250 249 248 246 244 243 243 241 237 234 233 234 235 235 235 238 242 245 249 250 248 248 247 240 238 241 240 238 243 247 245 243 245
339 337 336 336 337 337 336 334 333 331 330 328 326 324 323 321 319 316 312 308 304 301 298 296 293 290 288 286 283 281 278 275 273 272 269 268 266 263 262 260 259 260 260 261 261 261 260 259 257 256 254 253 252 251 250 248 245 244 244 241 236 232 231 231 231 232 233 236 239 241 244 246 244 242 237 230 231 238 239 236 240 246 247 247 247
341 339 338 338 339 339 338 337 335 333 333 331 330 328 326 324 321 318 316 312 309 307 303 300 296 293 292 290 287 284 280 277 277 276 273 271 270 267 265 263 261 261 260 261 262 262 261 260 260 259 257 256 254 253 251 250 248 247 246 243 238 232 229 228 229 228 229 232 235 234 236 241 239 235 234 234 236 239 239 234 237 244 247 249 251
342 341 340 342 343 343 342 340 337 335 335 333 332 330 327 326 323 321 320 318 316 314 310 306 303 299 297 293 290 288 285 284 284 284 281 278 275 272 269 267 265 264 262 262 262 263 264 263 262 262 260 258 257 256 254 252 250 249 248 246 242 237 232 229 229 227 227 231 234 231 229 238 239 235 235 239 239 237 236 234 235 240 239 239 251
344 343 344 346 348 348 346 344 340 338 337 336 334 332 330 327 326 325 323 322 322 319 316 312 310 307 303 299 295 293 291 292 292 291 288 285 282 279 275 271 269 267 265 263 263 264 264 265 265 264 262 261 260 259 257 256 254 252 251 249 246 243 239 236 234 230 228 231 234 232 229 235 240 237 233 235 236 235 235 234 233 234 234 233 239
347 348 350 351 351 351 349 345 342 339 338 337 335 334 333 331 330 329 327 326 324 321 319 317 314 312 308 304 301 299 298 298 297 296 295 292 290 286 281 276 273 270 268 266 265 264 264 265 265 265 263 262 262 260 259 259 258 256 254 252 249 246 244 242 240 238 235 234 235 236 234 233 236 238 235 234 233 231 230 231 230 231 232 234 238
353 355 356 355 353 352 349 345 342 339 338 337 336 335 335 333 333 332 330 329 326 323 321 319 317 315 312 309 306 304 302 302 302 300 299 298 296 292 287 282 278 275 272 269 267 266 265 265 265 265 265 263 262 260 260 259 258 257 255 252 250 247 245 243 241 240 240 238 239 242 241 237 237 242 242 236 231 228 226 227 228 228 231 236 241
2 1 359 356 353 351 348 345 342 340 339 338 338 337 336 334 333 332 331 328 325 322 321 319 317 315 313 311 308 305 304 305 305 304 303 302 301 297 291 286 282 279 277 275 272 271 270 268 267 267 267 266 264 262 261 260 260 259 256 253 251 249 247 244 241 240 239 239 240 244 245 243 241 244 244 239 235 234 234 234 234 232 235 241 246
8 4 360 355 351 348 346 344 342 341 340 340 339 338 336 334 333 332 330 327 325 322 320 318 317 315 314 313 310 307 306 307 308 307 306 305 304 302 297 291 287 283 281 280 278 276 274 272 270 270 269 269 268 266 265 264 263 262 259 257 256 253 251 249 245 243 242 241 241 244 246 246 245 245 245 241 239 238 236 238 237 231 231 240 245
8 2 356 351 348 346 345 344 342 341 341 340 339 338 336 335 334 333 331 328 326 325 322 320 319 316 315 314 312 310 309 311 312 310 309 309 306 303 299 295 291 287 286 285 283 280 279 275 273 273 272 271 271 270 269 267 265 263 262 262 261 259 257 255 251 248 247 245 245 247 248 248 248 247 246 244 242 237 230 230 228 218 218 231 240
3 357 351 347 345 344 343 342 341 340 340 339 338 337 336 335 334 333 332 328 326 325 324 322 321 320 318 317 316 313 312 314 317 316 315 315 312 307 302 297 294 291 289 289 287 284 282 279 276 274 273 274 275 273 271 268 265 264 264 264 264 262 261 259 255 254 251 248 248 249 250 250 249 249 248 245 243 236 227 227 224 214 215 226 232
358 352 347 344 343 342 342 341 340 339 338 338 338 337 335 335 334 333 332 328 326 325 324 322 321 321 321 320 319 317 316 317 320 320 320 321 319 314 309 302 297 296 295 294 293 290 287 285 282 278 277 279 279 277 274 269 265 264 264 264 263 263 264 263 260 258 255 249 248 248 248 250 249 248 248 246 243 236 231 230 226 217 217 226 227
354 349 346 344 343 343 343 341 340 339 339 338 337 336 335 335 334 333 330 328 325 324 323 322 320 319 320 320 320 319 318 318 320 320 320 321 320 319 314 308 303 302 301 299 297 296 294 292 289 286 283 283 282 281 278 272 266 264 263 261 259 262 267 268 265 261 258 254 252 250 249 249 248 247 246 245 243 238 234 232 229 222 221 225 223
354 351 348 346 346 345 345 343 341 340 341 339 336 336 337 337 335 332 330 328 326 325 324 323 320 319 321 321 320 319 319 319 319 320 320 319 319 318 314 309 306 305 304 301 299 298 297 296 295 293 291 289 287 284 281 277 272 267 263 260 260 264 268 270 268 266 262 259 257 255 252 251 248 245 244 242 241 237 233 232 230 226 224 223 221
356 353 351 350 349 348 347 345 342 340 340 338 336 337 339 338 336 335 333 331 329 327 326 325 323 321 321 322 321 321 322 321 320 320 321 320 319 317 313 309 308 305 302 300 298 297 297 296 296 296 295 293 291 288 285 281 276 270 267 266 266 267 268 268 268 267 263 260 258 256 254 252 248 245 242 240 239 237 233 232 231 228 226 226 225
357 355 354 352 351 350 349 347 344 341 339 338 336 337 339 339 338 337 336 334 332 329 328 327 324 321 321 322 323 322 322 321 319 319 319 318 317 316 313 311 311 308 303 299 299 299 299 298 297 297 296 294 292 290 287 283 278 272 270 269 269 269 269 267 266 265 262 260 257 255 254 252 248 246 243 240 239 237 234 233 232 230 228 229 230
357 355 354 352 349 348 347 347 345 342 339 336 334 335 337 336 335 335 335 333 330 327 326 324 322 320 319 320 320 320 320 319 316 315 315 315 314 313 312 311 312 311 307 302 300 301 300 300 299 299 297 295 293 290 288 284 279 274 272 270 269 268 267 265 262 260 259 257 254 253 253 252 250 248 247 245 243 241 237 236 235 232 230 232 233
356 354 352 350 347 346 345 344 343 341 339 336 332 331 332 332 331 331 331 330 327 325 323 322 320 319 319 318 317 317 317 317 314 312 312 312 311 311 311 312 311 310 306 302 300 300 300 300 300 300 298 297 295 292 289 285 281 278 274 272 269 265 262 260 258 256 253 251 251 251 252 253 252 251 251 251 248 244 239 236 235 234 233 234 235
354 352 350 348 345 344 343 341 340 339 337 335 330 327 327 327 326 327 327 327 326 323 321 319 318 318 316 314 313 314 314 314 312 311 310 311 311 312 312 310 308 305 302 300 299 300 301 301 300 300 299 297 295 292 288 285 283 280 276 271 266 260 256 254 251 249 248 248 249 250 251 253 254 254 253 251 246 241 237 232 232 233 231 230 233
352 350 348 345 343 342 340 338 336 335 334 332 328 324 323 323 323 323 324 325 324 321 318 315 315 314 312 312 312 311 310 309 310 311 313 314 313 312 310 307 306 305 304 303 302 302 302 300 299 297 296 295 294 292 289 286 283 280 276 271 264 257 253 251 248 246 246 247 248 249 251 254 254 252 249 245 241 240 237 231 230 231 229 225 226
349 347 345 342 340 339 337 335 334 331 329 328 326 323 321 321 320 318 318 321 321 318 315 312 311 311 311 311 310 307 305 306 309 312 314 313 311 310 308 307 308 307 304 302 300 299 298 296 295 294 293 292 291 290 288 286 282 279 275 271 266 260 255 251 248 246 246 247 248 250 252 251 250 248 246 242 240 240 237 230 228 230 227 220 219
348 346 344 341 338 336 334 333 332 329 327 326 325 323 320 319 317 313 312 313 314 312 311 311 310 309 308 307 306 306 308 310 310 311 310 308 306 306 307 306 305 303 299 298 298 299 297 294 291 290 289 288 286 285 284 282 281 279 277 274 270 265 258 252 248 246 246 246 246 247 248 248 248 247 245 242 240 239 236 228 226 228 225 217 217
346 345 343 339 336 335 332 331 330 328 326 325 324 321 318 316 313 308 307 309 310 308 307 306 305 304 306 307 307 307 308 308 308 309 309 308 307 306 305 303 301 299 297 297 297 295 292 288 285 284 283 282 281 280 279 279 278 277 276 275 272 269 263 257 253 251 250 248 246 245 245 246 246 245 243 241 240 239 234 228 226 226 222 218 219
346 342 340 337 334 333 330 328 327 326 323 322 321 318 317 315 313 309 307 308 310 310 308 306 305 307 311 312 310 308 308 308 308 309 310 310 310 309 306 304 301 299 298 297 294 289 285 281 279 278 277 275 275 275 276 277 276 276 276 275 273 269 266 262 261 259 255 252 249 247 245 244 245 245 243 241 240 240 235 229 225 223 222 221 220
344 339 336 333 331 330 327 325 324 322 320 320 319 317 315 314 313 314 313 310 309 308 307 307 311 314 313 311 309 310 312 312 311 310 311 311 311 310 309 307 304 301 299 295 289 282 279 277 274 273 274 273 275 278 279 278 277 275 274 273 272 270 267 265 264 262 258 255 252 249 247 246 245 245 244 242 241 239 235 229 223 221 222 222 221
340 335 332 329 327 326 324 323 322 320 318 318 317 316 315 313 313 315 315 314 313 311 307 307 311 313 312 311 312 313 312 310 309 310 312 312 312 312 312 310 308 307 306 301 292 283 281 282 282 285 287 288 288 288 286 283 281 279 277 275 274 272 270 268 267 263 258 255 253 250 248 248 247 246 245 243 241 239 237 232 225 220 220 221 222
335 330 328 327 326 324 324 323 321 319 318 317 316 315 315 314 313 313 313 315 318 317 315 313 313 312 312 315 315 312 309 308 311 313 314 313 314 316 318 318 317 317 317 315 310 306 304 303 302 299 294 290 288 286 285 285 286 286 283 280 276 274 273 272 268 263 259 258 255 252 250 248 247 247 246 245 242 240 238 236 230 223 219 218 220
332 329 328 329 327 326 325 323 321 320 319 318 317 316 316 316 316 314 314 316 317 316 315 316 317 317 317 316 313 310 312 316 318 318 317 318 321 322 322 320 319 318 318 317 314 311 308 304 301 298 296 296 298 299 300 300 299 298 297 297 296 295 292 285 275 267 263 259 255 252 251 249 247 245 245 245 244 242 238 236 234 229 225 221 220
333 330 330 330 329 326 324 323 322 321 320 319 318 318 318 319 318 317 316 315 313 312 313 316 318 319 318 316 316 320 325 325 321 318 318 319 321 320 317 316 318 320 320 316 311 307 304 302 303 306 311 314 316 318 317 316 314 313 314 315 314 311 308 303 299 295 288 278 266 257 251 248 247 246 245 244 242 241 241 240 237 232 229 226 222
333 331 330 330 327 325 324 323 323 322 320 320 320 320 320 320 318 316 314 314 314 316 317 318 318 318 319 323 328 330 328 324 321 319 318 319 320 322 323 323 322 317 312 308 308 310 313 317 321 323 324 323 322 320 318 316 314 313 314 314 312 308 307 308 310 311 307 300 293 285 271 256 247 244 242 242 243 242 241 241 239 236 233 227 224
332 330 330 329 327 327 326 325 325 324 322 321 321 321 320 318 317 316 316 317 318 318 317 317 317 319 323 327 329 328 326 325 324 325 325 327 330 332 328 321 314 309 309 314 321 326 327 327 326 326 324 322 319 315 311 309 307 307 307 306 303 301 302 304 306 307 306 305 306 305 298 287 274 260 248 241 240 242 243 241 238 236 235 229 224
331 330 330 330 330 329 327 325 323 322 322 322 322 322 321 320 320 320 319 318 318 317 317 319 322 324 325 325 326 327 328 328 328 328 328 329 330 328 323 318 318 324 328 329 329 329 327 325 325 324 322 319 316 312 311 311 311 310 309 307 305 303 303 302 302 302 302 301 303 306 307 305 300 292 280 266 252 242 240 242 240 235 233 231 223
331 330 330 331 329 326 324 322 321 321 322 322 322 323 322 321 321 319 318 319 319 321 323 325 324 322 322 323 326 329 329 327 326 326 326 326 326 326 325 326 329 330 327 324 324 325 323 321 319 316 314 313 313 314 316 315 312 308 305 302 301 299 296 295 294 295 296 298 298 298 299 299 300 301 299 293 280 261 245 239 238 235 233 230 221
332 331 329 329 327 324 323 322 321 322 324 323 322 322 321 321 321 321 322 323 323 323 322 321 319 319 321 323 325 327 327 324 323 323 323 324 325 325 325 325 325 323 321 319 320 319 317 314 312 310 309 310 311 311 311 308 305 303 302 300 299 296 294 294 295 295 295 295 293 293 294 294 296 297 296 296 295 286 269 252 239 231 231 229 217
333 329 327 327 326 325 325 324 323 324 325 324 323 323 323 324 324 324 324 323 322 320 319 318 318 320 321 322 325 326 325 323 323 323 323 323 323 322 322 322 322 321 319 318 317 315 313 312 311 310 309 309 308 307 305 304 304 305 304 302 299 297 296 297 296 295 295 294 292 292 292 292 293 293 290 289 292 293 288 278 261 240 229 216 191
330 327 326 325 324 324 324 324 324 325 325 325 325 326 325 325 324 323 321 320 319 318 319 319 319 321 321 323 325 326 325 323 324 323 323 323 322 321 321 321 321 321 319 318 317 316 314 312 310 309 308 307 305 304 302 300 300 300 299 297 296 296 297 299 299 297 298 297 294 293 293 291 291 290 287 283 282 283 287 288 282 267 241 194 166
329 326 324 323 323 323 323 324 324 325 325 325 325 325 324 323 322 320 320 319 319 319 320 319 320 322 322 323 325 326 324 324 324 324 324 323 322 322 322 322 323 323 322 321 320 318 316 313 312 310 309 307 306 305 303 301 300 300 299 299 300 300 299 298 297 295 295 294 293 291 289 287 285 283 281 280 280 279 277 276 272 260 216 162 153
328 326 324 324 323 323 323 324 324 324 324 323 322 322 323 323 321 320 321 321 320 321 321 321 322 322 322 323 325 325 324 324 325 325 325 324 323 323 324 325 324 324 323 322 322 321 319 317 314 312 311 310 309 308 307 305 304 304 303 301 299 298 295 293 292 291 290 288 286 284 282 282 282 281 282 281 279 276 270 260 245 214 177 164 161
329 327 325 324 323 322 323 323 323 323 323 323 322 322 323 323 323 322 322 322 322 322 322 322 323 322 322 323 324 325 324 324 325 325 325 325 324 325 325 325 324 324 323 323 322 322 321 319 318 316 314 313 312 311 310 310 309 309 308 305 301 298 295 294 292 289 286 284 282 281 281 281 279 277 276 275 271 265 256 241 220 196 175 164 156
330 327 324 323 322 322 322 322 322 322 323 323 323 323 323 324 324 323 322 322 323 323 323 323 322 322 323 323 324 324 324 324 324 325 325 326 325 326 326 325 325 324 324 324 324 324 323 323 322 321 320 319 318 317 316 316 316 316 315 313 310 306 302 298 294 290 286 283 281 278 276 275 272 270 270 266 258 247 231 205 185 170 157 149 142
330 327 325 324 323 322 322 323 323 323 323 324 324 324 323 323 323 322 321 322 323 323 323 323 323 323 323 324 324 324 324 324 324 325 326 326 326 326 326 326 326 326 327 327 327 328 328 328 329 330 330 329 328 327 326 326 326 324 324 323 320 316 312 306 299 293 287 283 278 274 271 268 266 266 264 255 238 216 188 162 150 142 136 134 135
330 328 325 324 324 323 323 323 323 323 324 324 323 323 323 322 322 321 321 321 322 322 323 323 323 323 323 324 324 325 325 325 326 326 327 327 327 326 326 327 328 328 329 329 330 331 333 334 336 337 337 335 336 336 336 335 334 333 332 332 329 327 326 321 313 304 296 288 279 273 270 266 262 258 248 229 203 178 156 142 135 132 130 130 131
328 326 324 323 322 322 322 323 323 322 323 324 323 323 323 322 321 321 321 320 321 322 323 323 323 323 323 323 324 325 325 325 325 326 326 327 328 327 327 327 328 330 331 332 333 334 336 337 338 340 340 339 340 341 341 341 342 341 340 340 341 342 343 342 337 331 321 307 291 279 270 261 249 233 210 182 162 149 138 131 129 128 127 127 128
326 325 323 321 321 321 322 323 323 323 323 323 322 322 322 321 320 320 320 320 320 321 322 323 322 322 323 323 323 324 324 324 325 326 326 327 328 329 329 328 329 330 332 334 335 337 339 339 340 342 344 343 343 345 346 346 346 345 346 348 351 354 357 358 355 351 346 340 332 320 297 255 186 155 144 140 136 131 126 123 122 122 122 123 124